timestamp,surface_pressure_avg,surface_temp_avg,battery_voltage,lat,long
2023-07-11 00:09:00+00:00,199.9899,14.13,13.05,47.84626,-54.09684
2023-07-11 00:19:00+00:00,201.3348,14.15,12.81,47.84626,-54.09684
2023-07-11 00:29:00+00:00,204.0016,14.1,12.81,47.84626,-54.09684
2023-07-11 00:39:00+00:00,203.048,14.1,12.81,47.84626,-54.09684
2023-07-11 00:49:00+00:00,200.7431,14.24,12.81,47.84626,-54.09684
2023-07-11 00:59:00+00:00,204.7098,14.72,12.81,47.84626,-54.09684
2023-07-11 01:09:00+00:00,209.1163,14.9,12.81,47.84626,-54.09684
2023-07-11 01:19:00+00:00,207.0432,15.59,12.73,47.84626,-54.09684
2023-07-11 01:29:00+00:00,207.1047,16.0,12.73,47.84626,-54.09684
2023-07-11 01:39:00+00:00,210.9331,16.17,12.73,47.84626,-54.09684
2023-07-11 01:49:00+00:00,212.9649,16.1,12.73,47.84626,-54.09684
2023-07-11 01:59:00+00:00,213.7864,15.89,12.73,47.84626,-54.09684
2023-07-11 02:09:00+00:00,216.8648,15.8,12.73,47.84626,-54.09684
2023-07-11 02:19:00+00:00,222.3564,15.84,12.73,47.84626,-54.09684
2023-07-11 02:29:00+00:00,226.6214,15.8,12.73,47.84626,-54.09684
2023-07-11 02:39:00+00:00,229.5114,15.5,12.73,47.84626,-54.09684
2023-07-11 02:49:00+00:00,236.2781,15.5,12.73,47.84626,-54.09684
2023-07-11 02:59:00+00:00,244.1231,15.5,12.73,47.84626,-54.09684
2023-07-11 03:09:00+00:00,247.3031,15.5,12.73,47.84626,-54.09684
2023-07-11 03:19:00+00:00,251.1197,15.3,12.65,47.84626,-54.09684
2023-07-11 03:29:00+00:00,259.9714,15.1,12.65,47.84626,-54.09684
2023-07-11 03:39:00+00:00,269.8247,15.36,12.65,47.84626,-54.09684
2023-07-11 03:49:00+00:00,274.7964,13.98,12.65,47.84626,-54.09684
2023-07-11 03:59:00+00:00,279.5881,13.1,12.65,47.84626,-54.09684
2023-07-11 04:09:00+00:00,286.3347,13.1,12.65,47.84626,-54.09684
2023-07-11 04:19:00+00:00,292.843,12.89,12.65,47.84626,-54.09684
2023-07-11 04:29:00+00:00,294.4965,13.2,12.65,47.84626,-54.09684
2023-07-11 04:39:00+00:00,297.2414,13.3,12.65,47.84626,-54.09684
2023-07-11 04:49:00+00:00,302.2064,13.2,12.65,47.84626,-54.09684
2023-07-11 04:59:00+00:00,308.1964,13.5,12.65,47.84626,-54.09684
2023-07-11 05:09:00+00:00,307.9914,13.5,12.65,47.84626,-54.09684
2023-07-11 05:19:00+00:00,307.9265,13.28,12.65,47.84626,-54.09684
2023-07-11 05:29:00+00:00,310.6031,12.7,12.65,47.84626,-54.09684
2023-07-11 05:39:00+00:00,313.6462,12.92,12.65,47.84626,-54.09684
2023-07-11 05:49:00+00:00,314.7112,12.79,12.65,47.84626,-54.09684
2023-07-11 05:59:00+00:00,317.4763,12.6,12.65,47.84626,-54.09684
2023-07-11 06:09:00+00:00,320.6696,12.6,12.65,47.84626,-54.09684
2023-07-11 06:19:01+00:00,320.323,12.6,12.65,47.84626,-54.09684
2023-07-11 06:29:01+00:00,318.5413,12.5,12.65,47.84626,-54.09684
2023-07-11 06:39:01+00:00,319.9063,12.7,12.65,47.84626,-54.09684
2023-07-11 06:49:01+00:00,320.0764,13.36,12.65,47.84626,-54.09684
2023-07-11 06:59:01+00:00,316.5862,13.72,12.65,47.84626,-54.09684
2023-07-11 07:09:01+00:00,312.6198,13.8,12.65,47.84626,-54.09684
2023-07-11 07:19:00+00:00,313.0415,13.76,12.57,47.84626,-54.09684
2023-07-11 07:29:00+00:00,311.2363,14.1,12.57,47.84626,-54.09684
2023-07-11 07:39:00+00:00,306.983,14.12,12.57,47.84626,-54.09684
2023-07-11 07:49:00+00:00,302.3247,14.0,12.57,47.84626,-54.09684
2023-07-11 07:59:00+00:00,297.3247,13.98,12.57,47.84626,-54.09684
2023-07-11 08:09:00+00:00,290.2664,14.08,12.57,47.84626,-54.09684
2023-07-11 08:19:00+00:00,285.0997,14.17,12.57,47.84626,-54.09684
2023-07-11 08:29:00+00:00,279.6847,14.24,12.57,47.84626,-54.09684
2023-07-11 08:39:00+00:00,271.2181,14.29,12.57,47.84626,-54.09684
2023-07-11 08:49:00+00:00,264.2847,14.3,12.57,47.84626,-54.09684
2023-07-11 08:59:00+00:00,259.4664,14.3,12.57,47.84626,-54.09684
2023-07-11 09:09:00+00:00,252.7297,14.32,12.57,47.84626,-54.09684
2023-07-11 09:19:00+00:00,242.4281,14.3,12.65,47.84626,-54.09684
2023-07-11 09:29:00+00:00,234.668,14.3,12.65,47.84626,-54.09684
2023-07-11 09:39:00+00:00,228.0981,14.3,12.65,47.84626,-54.09684
2023-07-11 09:49:00+00:00,220.9848,14.38,12.65,47.84626,-54.09684
2023-07-11 09:59:00+00:00,216.1397,14.4,12.65,47.84626,-54.09684
2023-07-11 10:09:00+00:00,211.9548,14.4,12.65,47.84626,-54.09684
2023-07-11 10:19:00+00:00,205.1915,14.39,12.89,47.84626,-54.09684
2023-07-11 10:29:00+00:00,200.2815,14.39,12.89,47.84626,-54.09684
2023-07-11 10:39:00+00:00,198.3232,14.34,12.89,47.84626,-54.09684
2023-07-11 10:49:00+00:00,196.5731,14.37,12.89,47.84626,-54.09684
2023-07-11 10:59:00+00:00,192.9031,14.38,12.89,47.84626,-54.09684
2023-07-11 11:09:00+00:00,191.6947,14.3,12.89,47.84626,-54.09684
2023-07-11 11:19:00+00:00,193.7565,14.3,13.13,47.84626,-54.09684
2023-07-11 11:29:00+00:00,195.1798,14.3,13.13,47.84626,-54.09684
2023-07-11 11:39:00+00:00,197.4547,14.1,13.13,47.84626,-54.09684
2023-07-11 11:49:00+00:00,199.2098,13.97,13.13,47.84626,-54.09684
2023-07-11 11:59:00+00:00,200.9198,13.97,13.13,47.84626,-54.09684
2023-07-11 12:09:00+00:00,203.6948,13.9,13.13,47.84626,-54.09684
2023-07-11 12:19:00+00:00,206.5847,13.87,13.6,47.84626,-54.09684
2023-07-11 12:29:00+00:00,208.9082,13.8,13.6,47.84626,-54.09684
2023-07-11 12:39:00+00:00,210.7965,13.8,13.6,47.84626,-54.09684
2023-07-11 12:49:00+00:00,213.3831,13.82,13.6,47.84626,-54.09684
2023-07-11 12:59:00+00:00,216.2815,13.89,13.6,47.84626,-54.09684
2023-07-11 13:09:00+00:00,217.7898,13.75,13.6,47.84626,-54.09684
2023-07-11 13:19:00+00:00,219.3682,13.7,14.0,47.84626,-54.09684
2023-07-11 13:29:00+00:00,221.4898,13.7,14.0,47.84626,-54.09684
2023-07-11 13:39:00+00:00,223.7014,13.6,14.0,47.84626,-54.09684
2023-07-11 13:49:00+00:00,225.6847,13.6,14.0,47.84626,-54.09684
2023-07-11 13:59:00+00:00,227.193,13.53,14.0,47.84626,-54.09684
2023-07-11 14:09:00+00:00,227.8047,13.55,14.0,47.84626,-54.09684
2023-07-11 14:19:00+00:00,227.5049,13.6,13.92,47.84626,-54.09684
2023-07-11 14:29:00+00:00,228.1814,13.6,13.92,47.84626,-54.09684
2023-07-11 14:39:00+00:00,230.9831,13.59,13.92,47.84626,-54.09684
2023-07-11 14:49:00+00:00,233.4748,13.57,13.92,47.84626,-54.09684
2023-07-11 14:59:00+00:00,235.5414,13.6,13.92,47.84626,-54.09684
2023-07-11 15:09:00+00:00,237.7531,13.59,13.92,47.84626,-54.09684
2023-07-11 15:19:00+00:00,241.5148,13.5,13.92,47.84626,-54.09684
2023-07-11 15:29:00+00:00,246.9315,13.5,13.92,47.84626,-54.09684
2023-07-11 15:39:00+00:00,253.8997,13.4,13.92,47.84626,-54.09684
2023-07-11 15:49:00+00:00,260.2365,13.3,13.92,47.84626,-54.09684
2023-07-11 15:59:00+00:00,266.4264,13.2,13.92,47.84626,-54.09684
2023-07-11 16:09:00+00:00,270.373,13.2,13.92,47.84626,-54.09684
2023-07-11 16:19:00+00:00,277.4447,13.0,13.76,47.84626,-54.09684
2023-07-11 16:29:00+00:00,285.1064,12.9,13.76,47.84626,-54.09684
2023-07-11 16:39:00+00:00,291.3746,12.9,13.76,47.84626,-54.09684
2023-07-11 16:49:00+00:00,294.1964,12.8,13.76,47.84626,-54.09684
2023-07-11 16:59:00+00:00,298.5113,12.6,13.76,47.84626,-54.09684
2023-07-11 17:09:00+00:00,301.4897,12.5,13.76,47.84626,-54.09684
2023-07-11 17:19:00+00:00,305.1764,12.4,13.68,47.84626,-54.09684
2023-07-11 17:29:00+00:00,308.2247,12.2,13.68,47.84626,-54.09684
2023-07-11 17:39:00+00:00,312.2063,12.2,13.68,47.84626,-54.09684
2023-07-11 17:49:00+00:00,314.0781,12.2,13.68,47.84626,-54.09684
2023-07-11 17:59:00+00:00,316.7112,12.2,13.68,47.84626,-54.09684
2023-07-11 18:09:00+00:00,319.1797,12.12,13.68,47.84626,-54.09684
